Regional Weather Roundup
Issued by NWS Charleston, WV

Home | Current Version | Previous Version | Graphics & Text | Print | Product List | Glossary On
Versions: 1 2 3 4 5 6 7 8 9 10 11 12 13 14 15 16 17 18 19 20 21 22 23 24 25 26 27 28 29 30 31 32 33 34 35 36 37 38 39 40 41 42 43 44 45 46 47 48 49 50
000
ASUS41 KRLX 171110
RWRRLX
West Virginia Regional Weather Roundup
National Weather Service Charleston WV
700 AM EDT WED SEP 17 2014

Note: "fair" indicates few or no clouds below 12,000 feet with no
significant weather and/or obstructions to visibility.

WVZ003-171200-
Northern Panhandle of West Virginia

CITY           SKY/WX    TMP DP  RH WIND       PRES   REMARKS
WHEELING       MOCLDY    47  45  93 NE5       30.07S FOG
$$

WVZ009-171200-
Northwest West Virginia

CITY           SKY/WX    TMP DP  RH WIND       PRES   REMARKS
PARKERSBURG    FOG       49  49 100 CALM      30.09S VSB 3/4
$$

WVZ006-171200-
Western West Virginia

CITY           SKY/WX    TMP DP  RH WIND       PRES   REMARKS
HUNTINGTON     FOG       49  49 100 NW3       30.06F VSB 1/4
$$

WVZ015-171200-
West Central West Virginia

CITY           SKY/WX    TMP DP  RH WIND       PRES   REMARKS
CHARLESTON     FOG       55  55 100 CALM      30.06S VSB 1/4
$$

WVZ031-171200-
North Central West Virginia

CITY           SKY/WX    TMP DP  RH WIND       PRES   REMARKS
CLARKSBURG     FOG       50  48  93 CALM      30.07S VSB 1/2
MORGANTOWN     CLEAR     47  44  90 CALM      30.08S FOG
$$

WVZ035-042-045-171200-
South Central West Virginia

CITY           SKY/WX    TMP DP  RH WIND       PRES   REMARKS
BECKLEY        CLOUDY    53  51  93 CALM      30.07R FOG
BLUEFIELD      FOG       55  52  89 NE5       30.07S VSB 1/4
LEWISBURG      CLOUDY    50  49  95 N7        30.07S
$$

WVZ047-171200-
Northern Mountains of West Virginia

CITY           SKY/WX    TMP DP  RH WIND       PRES   REMARKS
ELKINS         CLOUDY    49  46  90 SE3       30.09S
$$

WVZ052-171200-
Eastern Panhandle of West Virginia

CITY           SKY/WX    TMP DP  RH WIND       PRES   REMARKS
MARTINSBURG    CLEAR     45  42  89 CALM      30.07S
PETERSBURG     CLEAR     43  41  92 CALM      30.10R FOG
$$


USA.gov is the U.S. government's official web portal to all federal, state and local government web resources and services.